• In Uzbekistan
  • List of Countries
  • For 7 days
  • Water Temperature
  • Satellite Maps
  • Weather Map
  • Weather Widgets
  • user-avatar
    Login

    Hourly Weather Vysokie

    Today, 24 April, Wednesday

    Time Temperature Precipitation Wind Pressure Humidity
    00:00 +8°C° 0 mm 3 mps 742 mmHg 63%
    01:00 +8°C° 0 mm 3 mps 742 mmHg 63%
    02:00 +7°C° 0 mm 2 mps 742 mmHg 62%
    03:00 +7°C° 0 mm 3 mps 742 mmHg 63%
    04:00 +7°C° 0 mm 3 mps 742 mmHg 64%
    05:00 +7°C° 0 mm 3 mps 742 mmHg 65%
    06:00 +7°C° 0 mm 4 mps 742 mmHg 62%
    07:00 +10°C° 0 mm 4 mps 742 mmHg 58%
    08:00 +10°C° 0 mm 5 mps 742 mmHg 55%
    09:00 +13°C° 0 mm 5 mps 742 mmHg 49%
    10:00 +15°C° 0 mm 6 mps 742 mmHg 44%
    11:00 +16°C° 0 mm 7 mps 742 mmHg 38%
    12:00 +17°C° 0 mm 7 mps 742 mmHg 37%
    13:00 +17°C° 0 mm 7 mps 742 mmHg 37%
    14:00 +18°C° 0 mm 7 mps 742 mmHg 36%
    15:00 +19°C° 0 mm 6 mps 741 mmHg 38%
    16:00 +17°C° 0 mm 5 mps 741 mmHg 41%
    17:00 +18°C° 0 mm 4 mps 741 mmHg 44%
    18:00 +15°C° 0 mm 4 mps 741 mmHg 49%
    19:00 +13°C° 0 mm 4 mps 740 mmHg 54%
    20:00 +11°C° 0 mm 3 mps 740 mmHg 58%
    21:00 +11°C° 0 mm 3 mps 740 mmHg 59%
    22:00 +10°C° 0 mm 3 mps 741 mmHg 60%
    23:00 +9°C° 0 mm 3 mps 741 mmHg 60%

    Tomorrow, 25 April, Thursday

    Time Temperature Precipitation Wind Pressure Humidity
    00:00 +9°C° 0 mm 3 mps 741 mmHg 61%
    01:00 +9°C° 0 mm 3 mps 741 mmHg 62%
    02:00 +7°C° 0 mm 4 mps 741 mmHg 63%
    03:00 +7°C° 0 mm 4 mps 740 mmHg 64%
    04:00 +7°C° 0 mm 4 mps 740 mmHg 65%
    05:00 +7°C° 0 mm 4 mps 740 mmHg 66%
    06:00 +8°C° 0 mm 5 mps 740 mmHg 64%
    07:00 +9°C° 0 mm 5 mps 740 mmHg 62%
    08:00 +11°C° 0 mm 6 mps 740 mmHg 59%
    09:00 +13°C° 0 mm 6 mps 740 mmHg 56%
    10:00 +15°C° 0 mm 6 mps 740 mmHg 53%
    11:00 +16°C° 0 mm 7 mps 739 mmHg 50%
    12:00 +17°C° 0 mm 6 mps 739 mmHg 49%
    13:00 +19°C° 0 mm 6 mps 739 mmHg 48%
    14:00 +20°C° 0 mm 6 mps 739 mmHg 47%
    15:00 +20°C° 0 mm 5 mps 738 mmHg 49%
    16:00 +19°C° 0 mm 5 mps 738 mmHg 50%
    17:00 +19°C° 0 mm 5 mps 738 mmHg 51%
    18:00 +18°C° 0 mm 4 mps 737 mmHg 57%
    19:00 +15°C° 0 mm 4 mps 737 mmHg 62%
    20:00 +13°C° 0 mm 3 mps 737 mmHg 68%
    21:00 +13°C° 0 mm 3 mps 737 mmHg 68%
    22:00 +12°C° 0 mm 3 mps 737 mmHg 68%
    23:00 +11°C° 0 mm 4 mps 737 mmHg 69%

    Day after tomorrow, 26 April, Friday

    Time Temperature Precipitation Wind Pressure Humidity
    00:00 +11°C° 0 mm 3 mps 737 mmHg 71%
    01:00 +10°C° 0 mm 3 mps 737 mmHg 74%
    02:00 +10°C° 0 mm 3 mps 736 mmHg 76%
    03:00 +10°C° 0 mm 3 mps 736 mmHg 78%
    04:00 +9°C° 0 mm 3 mps 736 mmHg 80%
    05:00 +9°C° 0 mm 3 mps 736 mmHg 82%
    06:00 +10°C° 0 mm 4 mps 736 mmHg 78%
    07:00 +11°C° 0 mm 4 mps 735 mmHg 75%
    08:00 +13°C° 0 mm 4 mps 735 mmHg 72%
    09:00 +14°C° 0 mm 5 mps 735 mmHg 68%
    10:00 +16°C° 0 mm 5 mps 735 mmHg 64%
    11:00 +19°C° 0 mm 6 mps 735 mmHg 61%
    12:00 +20°C° 0.2 mm 6 mps 735 mmHg 60%
    13:00 +20°C° 0.2 mm 6 mps 734 mmHg 58%
    14:00 +21°C° 0.2 mm 6 mps 734 mmHg 57%
    15:00 +21°C° 0.7 mm 5 mps 733 mmHg 60%
    16:00 +21°C° 0.7 mm 5 mps 733 mmHg 63%
    17:00 +20°C° 0.7 mm 4 mps 732 mmHg 66%
    18:00 +19°C° 0.3 mm 4 mps 732 mmHg 71%
    19:00 +17°C° 0.3 mm 4 mps 732 mmHg 77%
    20:00 +16°C° 0.3 mm 3 mps 731 mmHg 82%
    21:00 +14°C° 0.2 mm 4 mps 731 mmHg 84%
    22:00 +14°C° 0.2 mm 4 mps 731 mmHg 86%
    23:00 +13°C° 0.2 mm 5 mps 731 mmHg 88%

    27 April, Saturday

    Time Temperature Precipitation Wind Pressure Humidity
    00:00 +13°C° 0.1 mm 5 mps 730 mmHg 90%
    01:00 +13°C° 0.1 mm 4 mps 730 mmHg 92%
    02:00 +13°C° 0.1 mm 4 mps 730 mmHg 94%
    03:00 +12°C° 0 mm 4 mps 729 mmHg 95%
    04:00 +12°C° 0 mm 3 mps 729 mmHg 96%
    05:00 +12°C° 0 mm 3 mps 729 mmHg 97%
    06:00 +12°C° 0 mm 3 mps 729 mmHg 95%
    07:00 +13°C° 0 mm 3 mps 729 mmHg 92%
    08:00 +14°C° 0 mm 3 mps 729 mmHg 89%
    09:00 +17°C° 0.1 mm 3 mps 729 mmHg 83%
    10:00 +19°C° 0.1 mm 3 mps 729 mmHg 76%
    11:00 +20°C° 0.1 mm 2 mps 729 mmHg 70%
    12:00 +21°C° 0.8 mm 3 mps 729 mmHg 65%
    13:00 +22°C° 0.8 mm 3 mps 728 mmHg 60%
    14:00 +24°C° 0.8 mm 3 mps 728 mmHg 56%
    15:00 +24°C° 1.3 mm 3 mps 728 mmHg 60%
    16:00 +22°C° 1.3 mm 3 mps 728 mmHg 64%
    17:00 +21°C° 1.3 mm 3 mps 728 mmHg 69%
    18:00 +20°C° 0.5 mm 3 mps 728 mmHg 75%
    19:00 +18°C° 0.5 mm 3 mps 728 mmHg 82%
    20:00 +17°C° 0.5 mm 3 mps 728 mmHg 89%
    21:00 +16°C° 0 mm 3 mps 728 mmHg 91%
    22:00 +14°C° 0 mm 3 mps 728 mmHg 92%
    23:00 +14°C° 0 mm 3 mps 728 mmHg 94%

    28 April, Sunday

    Time Temperature Precipitation Wind Pressure Humidity
    00:00 +13°C° 0 mm 3 mps 728 mmHg 94%
    01:00 +14°C° 0 mm 2 mps 728 mmHg 95%
    02:00 +13°C° 0 mm 2 mps 729 mmHg 96%
    03:00 +13°C° 0 mm 2 mps 729 mmHg 96%
    04:00 +12°C° 0 mm 2 mps 729 mmHg 97%
    05:00 +12°C° 0 mm 1 mps 729 mmHg 97%
    06:00 +13°C° 0 mm 1 mps 729 mmHg 95%
    07:00 +14°C° 0 mm 1 mps 729 mmHg 92%
    08:00 +15°C° 0 mm 1 mps 730 mmHg 90%
    09:00 +16°C° 0 mm 1 mps 730 mmHg 87%
    10:00 +16°C° 0 mm 1 mps 730 mmHg 83%
    11:00 +18°C° 0 mm 1 mps 730 mmHg 80%
    12:00 +19°C° 0.1 mm 1 mps 731 mmHg 77%
    13:00 +19°C° 0.1 mm 2 mps 731 mmHg 74%
    14:00 +20°C° 0.1 mm 2 mps 731 mmHg 70%
    15:00 +19°C° 1.1 mm 3 mps 731 mmHg 72%
    16:00 +19°C° 1.1 mm 4 mps 731 mmHg 74%
    17:00 +17°C° 1.1 mm 5 mps 731 mmHg 75%
    18:00 +16°C° 0.2 mm 5 mps 731 mmHg 78%
    19:00 +15°C° 0.2 mm 5 mps 731 mmHg 81%
    20:00 +14°C° 0.2 mm 5 mps 732 mmHg 84%
    21:00 +13°C° 0 mm 5 mps 732 mmHg 83%
    22:00 +13°C° 0 mm 5 mps 733 mmHg 82%
    23:00 +11°C° 0 mm 6 mps 733 mmHg 81%

    29 April, Monday

    Time Temperature Precipitation Wind Pressure Humidity
    00:00 +10°C° 0 mm 6 mps 734 mmHg 80%
    01:00 +9°C° 0 mm 6 mps 734 mmHg 78%
    02:00 +8°C° 0 mm 6 mps 734 mmHg 77%
    03:00 +7°C° 0 mm 6 mps 735 mmHg 76%
    04:00 +5°C° 0 mm 6 mps 735 mmHg 75%
    05:00 +4°C° 0 mm 6 mps 735 mmHg 74%
    06:00 +4°C° 0 mm 6 mps 736 mmHg 71%
    07:00 +5°C° 0 mm 6 mps 736 mmHg 68%
    08:00 +5°C° 0 mm 6 mps 737 mmHg 65%
    09:00 +7°C° 0 mm 6 mps 737 mmHg 61%
    10:00 +8°C° 0 mm 7 mps 737 mmHg 57%
    11:00 +10°C° 0 mm 7 mps 737 mmHg 53%
    12:00 +10°C° 0 mm 7 mps 737 mmHg 51%
    13:00 +11°C° 0 mm 6 mps 737 mmHg 48%
    14:00 +11°C° 0 mm 6 mps 737 mmHg 46%
    15:00 +11°C° 0 mm 6 mps 737 mmHg 46%
    16:00 +11°C° 0 mm 6 mps 737 mmHg 46%
    17:00 +10°C° 0 mm 6 mps 737 mmHg 47%
    18:00 +9°C° 0 mm 5 mps 737 mmHg 51%
    19:00 +8°C° 0 mm 5 mps 738 mmHg 55%
    20:00 +6°C° 0 mm 4 mps 738 mmHg 59%
    21:00 +6°C° 0 mm 4 mps 738 mmHg 61%
    22:00 +5°C° 0 mm 4 mps 739 mmHg 62%
    23:00 +4°C° 0 mm 4 mps 739 mmHg 63%
    Show more